Regional Weather Roundup
Issued by NWS

Home | Current Version | Previous Version | Text Only | Print | Product List | Glossary On
Versions: 1 2 3 4 5 6 7 8 9 10 11 12 13 14 15 16 17 18 19 20 21 22 23 24 25 26 27 28 29 30 31 32 33 34 35 36 37 38 39 40 41 42 43 44 45 46 47 48 49 50
000
ASUS46 KLOX 290613
RWRCA

SOUTHERN CALIFORNIA WEATHER ROUNDUP
NATIONAL WEATHER SERVICE OXNARD CALIFORNIA
1100 PM PDT THU MAY 28 2015

NOTE: "FAIR" INDICATES FEW OR NO CLOUDS BELOW 12,000 FEET WITH NO
SIGNIFICANT WEATHER AND/OR OBSTRUCTIONS TO VISIBILITY.

  -  STATIONS PRECEEDED BY AN ASTERISK (*) ARE NOT NWS OR FAA
     STATIONS AND ARE NOT SUBJECT TO NWS AND FAA QUALITY CONTROL.

CAZ041-042-087-290700-
LA AND ORANGE COUNTY COASTAL AREAS


CITY           SKY/WX    TMP DP  RH WIND       PRES   REMARKS
L.A. DOWNTOWN  CLEAR     60  55  83 W3        29.96R
L.A. AIRPORT   PTCLDY    58  56  93 SW6       29.97R
LONG BEACH     CLEAR     61  56  83 NW6       29.97R

CITY           SKY/WX    TMP DP  RH WIND       PRES   REMARKS
AVALON           N/A     61 N/A N/A MISG        N/A
FULLERTON      CLEAR     63  56  78 CALM      29.95S
*GETTY CENTER    N/A     54  54 100 N2          N/A
HAWTHORNE      CLEAR     62  55  77 W6        29.97R
*LOS ALAMITOS  FAIR      60  56  88 W5        29.96R
*REDONDO BEACH   N/A     59  55  85 CALM      29.96S
SANTA ANA      MOCLDY    61  56  83 SW6       29.97R
STA MONICA APT PTCLDY    60  55  83 VRB3      29.97R
*STA MON PIER    N/A     60  57  89 SW5       29.96S
*UCLA            N/A     59  54  82 CALM      29.93F

$$

CAZ547-548-048-290700-
LA COUNTY VALLEYS AND INLAND EMPIRE


CITY           SKY/WX    TMP DP  RH WIND       PRES   REMARKS
BURBANK        CLEAR     63  55  75 E6        29.95S
VAN NUYS       CLEAR     63  55  75 E6        29.95R

CITY           SKY/WX    TMP DP  RH WIND       PRES   REMARKS
CORONA AIRPORT CLEAR     62  56  81 W6        29.96R
CHINO          CLEAR     62  55  77 W6        29.97R
MARCH AFB      CLEAR     63  53  70 W3        29.96S
*NORTHRIDGE      N/A     64  54  68 NE2         N/A
ONTARIO        PTCLDY    64  55  72 W6        29.96R
*PASADENA        N/A     63  57  82 CALM        N/A
RIVERSIDE      CLEAR     66  56  70 W3        29.96R
SAN BERNARDINO NOT AVBL
*WHITEMAN AP   NOT AVBL
*WOODLAND HILL   N/A     63  54  72 E2          N/A

$$

CAZ054-055-290700-
LA AND SAN BERNARDINO COUNTY MOUNTAINS


CITY           SKY/WX    TMP DP  RH WIND       PRES   REMARKS
*BIG BEAR AIRP CLEAR     45  30  57 CALM      30.23S
SANDBERG       CLEAR     68  24  19 NW18      30.11S

$$

CAZ028-029-059-060-099-290700-
ANTELOPE VALLEY AND SURROUNDING AREAS


CITY           SKY/WX    TMP DP  RH WIND       PRES   REMARKS
LANCASTER      CLEAR     73  34  23 SW16      29.96F
PALMDALE       CLEAR     71  30  21 SW12      29.98S

CITY           SKY/WX    TMP DP  RH WIND       PRES   REMARKS
29 PALMS       CLEAR     81  36  19 SW12      29.97R
BARSTOW/DAGGET CLEAR     81  28  14 W12       29.91R
BISHOP         CLEAR     71  34  25 VRB3      30.01R
CHINA LAKE     CLEAR     78  32  18 S10       29.89R
EDWARDS AFB    CLEAR     71  33  24 SW13      29.94S
MOJAVE         FAIR      73  36  25 W23       29.95S
NEEDLES        PTCLDY    91  16   6 SW14      29.83R
VICTORVILLE    CLEAR     72  36  26 SW9       30.00R

$$

CAZ039-040-290700-
VENTURA AND SANTA BARBARA COUNTY COAST


CITY           SKY/WX    TMP DP  RH WIND       PRES   REMARKS
CAMARILLO      CLEAR     59  53  80 W3        29.95R
NWS OXNARD       N/A     58  54  86 CALM      29.94S
OXNARD AIRPORT MOCLDY    59  54  83 W5        29.95S
*POINT MUGU    PTCLDY    59  54  83 W6        29.96R
SBA APT/GOLETA CLEAR     59  56  89 E6        29.93S
*SANTA BARBARA   N/A     61  55  80 CALM      30.01S
*VENTURA         N/A     59  52  78 CALM      29.56S

$$

CAZ044-045-290700-
VENTURA COUNTY VALLEYS


CITY           SKY/WX    TMP DP  RH WIND       PRES   REMARKS
*SIMI VALLEY     N/A     59  53  79 CALM      29.90S
*OJAI            N/A     56  51  83 CALM      29.89R
*FILLMORE        N/A     59  51  77 CALM      29.85S

$$

CAZ053-290700-
VENTURA COUNTY MOUNTAINS


CITY           SKY/WX    TMP DP  RH WIND       PRES   REMARKS

$$

CAZ034-035-036-290700-
CENTRAL COAST AND SANTA YNEZ VALLEY


CITY           SKY/WX    TMP DP  RH WIND       PRES   REMARKS
SAN LUIS OBISP CLOUDY    53  51  93 NW8       29.99R
SANTA MARIA    CLOUDY    55  52  89 NW8       30.00R

CITY           SKY/WX    TMP DP  RH WIND       PRES   REMARKS
*CAL POLY SLO    N/A     54  52  94 SW3G10      N/A
*LOMPOC        CLOUDY    54  48  82 NW7       30.01S
*PISMO BEACH     N/A     54  51  87 NE3       30.00R
*SANTA YNEZ    FAIR      52  48  87 CALM      29.98S

$$

CAZ037-038-051-290700-
SAN LUIS OBISPO COUNTY INTERIOR AND CUYAMA VALLEY


CITY           SKY/WX    TMP DP  RH WIND       PRES   REMARKS
*CUYAMA          N/A     69  38  32 SE2       29.90S
PASO ROBLES    CLEAR     61  49  64 NW15      29.97R

$$

CAZ032-033-061-290700-
SOUTHERN DESERTS


CITY           SKY/WX    TMP DP  RH WIND       PRES   REMARKS
BLYTHE         PTCLDY    84  29  13 S10       29.82F
IMPERIAL       CLEAR     83  36  18 S8        29.79S
PALM SPRINGS   CLEAR     87  49  26 NW8       29.85R
THERMAL        CLEAR     73  52  47 W5        29.79R

$$

ELSEWHERE ACROSS THE WESTERN UNITED STATES AND MEXICO


CITY           SKY/WX    TMP DP  RH WIND       PRES   REMARKS
DENVER, CO     MOCLDY    53  48  83 SW12      30.14F
GRAND CANYON,  PTCLDY    46  36  68 CALM      30.20S
HONOLULU, HI   MOCLDY    75  64  69 NE7       29.99R
KAHULUI, MAUI  MOCLDY    75  68  78 NE3       29.99R
LAKE TAHOE, CA CLEAR     51  41  68 CALM      30.20S
LAS VEGAS, NV  CLOUDY    87  28  12 S9        29.84R
MAMMOTH LAKES, FAIR      54  32  43 NW3       30.24R
MEXICO CITY, M CLOUDY    59  52  77 E3        30.36R
PHOENIX, AZ    MOCLDY    84  33  16 SW10      29.84S
PORTLAND, OR   PTCLDY    68  57  68 NW5       29.97S
RENO, NV       PTCLDY    70  42  36 SW3       30.09R
SALT LAKE CITY PTCLDY    58  46  64 SW3       30.15R
SAN DIEGO, CA  MOCLDY    62  55  77 W3        29.99R
SAN FRANCISCO, CLOUDY    53  49  86 W16       30.02S
SAN JOSE, CA   CLOUDY    56  51  84 NW6       30.02S
SEATTLE, WA    PTCLDY    67  54  63 N6        30.00S
TIJUANA, MEX   MOCLDY    57  52  82 W3        30.00

$$

STATION/POSITION TIME  TEMP    WIND        PRES    VSBY  WAVE
                       AIR SEA DIR/SP/G                  HT/PER
                 (UTC) (F)     (DEG/KT/KT) (MB)    (MI)  (FT/S)
POINT ARGUELLO B NOT AVBL
WEST SANTA BARBA 0550   54 55  320/ 21/ 27 1013.8F         7/ 7
POINT CONCEPTION NOT AVBL
EAST SANTA BARBA 0500   58 59  260/ 12/ 14 1014.0R
SANTA MONICA BAY 0550   59 62  360/  4/  6 1014.7R         4/16



USA.gov is the U.S. government's official web portal to all federal, state and local government web resources and services.